DO7CRZ-12 Weather Reports


time (UTC)temp
C
wind
direction
speed
KPH
gust
KPH
rain 1hr
cm
rain 24hr
cm
rain mn
cm
humidity
%
barometer
mb
20260507075724 11 0.0 0.0 0.00 0.00 0.00 91 1010.4
20260507073719 11 0.0 0.0 0.00 0.00 0.00 90 1010.2
20260507072716 11 0.0 0.0 0.00 0.00 0.00 90 1010.2
20260507071729 11 0.0 0.0 0.00 0.00 0.00 90 1010.0
20260507070725 11 0.0 0.0 0.00 0.00 0.00 90 1009.9
20260507065722 11 0.0 0.0 0.00 0.00 0.00 89 1009.7
20260507064720 11 0.0 0.0 0.00 0.00 0.00 90 1009.7
20260507063717 11 0.0 0.0 0.00 0.00 0.00 90 1009.6
20260507062729 10 0.0 0.0 0.00 0.00 0.00 90 1009.5
20260507061726 10 0.0 0.0 0.00 0.00 0.00 89 1009.4
20260507060724 11 0.0 0.0 0.00 0.00 0.00 89 1009.4
20260507055722 11 0.0 0.0 0.00 0.00 0.00 88 1009.4
20260507054718 11 0.0 0.0 0.00 0.00 0.00 89 1009.1
20260507053730 11 0.0 0.0 0.00 0.00 0.00 90 1008.9
20260507052727 10 0.0 0.0 0.00 0.00 0.00 92 1008.6
20260507051724 10 0.0 0.0 0.00 0.00 0.00 92 1008.6
20260507050721 11 0.0 0.0 0.00 0.00 0.00 93 1008.5
20260507045723 11 0.0 0.0 0.00 0.00 0.00 93 1008.5
20260507044715 10 0.0 0.0 0.00 0.00 0.00 93 1008.5
20260507043727 10 0.0 0.0 0.00 0.00 0.00 93 1008.5
20260507042724 11 0.0 0.0 0.00 0.00 0.00 93 1008.4
20260507041722 10 0.0 0.0 0.00 0.00 0.00 93 1008.4
20260507040719 10 0.0 0.0 0.00 0.00 0.00 93 1008.3
20260507035716 10 0.0 0.0 0.00 0.00 0.00 93 1008.2
20260507034733 10 0.0 0.0 0.00 0.00 0.00 93 1008.2
20260507033725 10 0.0 0.0 0.00 0.00 0.00 93 1008.0
20260507032723 11 0.0 0.0 0.00 0.00 0.00 93 1008.1
20260507031720 10 0.0 0.0 0.00 0.00 0.00 93 1008.1
20260507030717 10 0.0 0.0 0.00 0.00 0.00 94 1008.0
20260507025729 10 0.0 0.0 0.00 0.00 0.00 94 1008.0
20260507024726 10 0.0 0.0 0.00 0.00 0.00 94 1007.9
20260507021718 11 0.0 0.0 0.00 0.00 0.00 94 1007.6
20260507020715 11 0.0 0.0 0.00 0.00 0.00 94 1007.5
20260507015727 11 0.0 0.0 0.00 0.00 0.00 94 1007.5
20260507014724 11 0.0 0.0 0.00 0.00 0.00 94 1007.5
20260507013721 11 0.0 0.0 0.00 0.00 0.00 93 1007.1
20260507012719 11 0.0 0.0 0.00 0.00 0.00 93 1007.6
20260507011716 11 0.0 0.0 0.00 0.00 0.00 93 1007.6
20260507010728 12 0.0 0.0 0.00 0.00 0.00 92 1007.2
20260507005725 12 0.0 0.0 0.00 0.00 0.00 92 1006.9
20260507004722 12 0.0 0.0 0.00 0.00 0.00 92 1006.7
20260507003719 12 0.0 0.0 0.00 0.00 0.00 92 1006.6
20260507002717 12 0.0 0.0 0.00 0.00 0.00 92 1006.5
20260507001729 12 0.0 0.0 0.00 0.00 0.00 92 1006.5
20260507000726 12 0.0 0.0 0.00 0.00 0.00 92 1006.7
20260506235723 12 0.0 0.0 0.00 0.00 0.00 91 1006.5
20260506234720 12 0.0 0.0 0.00 0.00 0.00 91 1006.5
20260506233717 12 0.0 0.0 0.00 0.00 0.00 91 1006.5
20260506232729 12 0.0 0.0 0.00 0.00 0.00 90 1006.5
20260506231727 13 0.0 0.0 0.00 0.00 0.00 90 1006.5
20260506230724 13 0.0 0.0 0.00 0.00 0.00 89 1006.7
20260506224718 13 0.0 0.0 0.00 0.00 0.00 88 1006.5
20260506223716 13 0.0 0.0 0.00 0.00 0.00 87 1006.6
20260506221725 13 0.0 0.0 0.00 0.00 0.00 85 1006.5
20260506220722 13 0.0 0.0 0.00 0.00 0.00 83 1006.5
20260506215719 14 0.0 0.0 0.00 0.00 0.00 83 1006.5
20260506214717 14 0.0 0.0 0.00 0.00 0.00 82 1006.3
20260506212726 15 0.0 0.0 0.00 0.00 0.00 81 1006.2
20260506211723 15 0.0 0.0 0.00 0.00 0.00 80 1006.1
20260506210720 15 0.0 0.0 0.00 0.00 0.00 80 1006.3
20260506205717 15 0.0 0.0 0.00 0.00 0.00 79 1006.0
20260506204730 15 0.0 0.0 0.00 0.00 0.00 80 1006.1
20260506203727 15 0.0 0.0 0.00 0.00 0.00 80 1006.2
20260506202724 15 0.0 0.0 0.00 0.00 0.00 80 1006.0
20260506201721 15 0.0 0.0 0.00 0.00 0.00 80 1006.1
20260506195729 15 0.0 0.0 0.00 0.00 0.00 78 1005.9
20260506194727 15 0.0 0.0 0.00 0.00 0.00 77 1005.7
20260506193723 16 0.0 0.0 0.00 0.00 0.00 75 1005.6
20260506192721 16 0.0 0.0 0.00 0.00 0.00 74 1005.6
20260506190715 16 0.0 0.0 0.00 0.00 0.00 73 1005.4
20260506185727 17 0.0 0.0 0.00 0.00 0.00 71 1005.6
20260506184724 17 0.0 0.0 0.00 0.00 0.00 70 1005.4
20260506183721 17 0.0 0.0 0.00 0.00 0.00 68 1005.1
20260506182718 17 0.0 0.0 0.00 0.00 0.00 67 1005.2
20260506181715 18 0.0 0.0 0.00 0.00 0.00 66 1005.0
20260506180727 18 0.0 0.0 0.00 0.00 0.00 66 1004.9
20260506175724 19 0.0 0.0 0.00 0.00 0.00 64 1004.7
20260506174721 19 0.0 0.0 0.00 0.00 0.00 62 1004.6
20260506170724 20 0.0 0.0 0.00 0.00 0.00 56 1004.6
20260506165721 21 0.0 0.0 0.00 0.00 0.00 54 1004.4
20260506163730 21 0.0 0.0 0.00 0.00 0.00 53 1004.2
20260506162727 21 0.0 0.0 0.00 0.00 0.00 52 1004.3
20260506161724 22 0.0 0.0 0.00 0.00 0.00 47 1004.4
20260506160721 22 0.0 0.0 0.00 0.00 0.00 46 1004.4
20260506155718 23 0.0 0.0 0.00 0.00 0.00 46 1004.4
20260506154715 23 0.0 0.0 0.00 0.00 0.00 45 1004.5
20260506153727 25 0.0 0.0 0.00 0.00 0.00 41 1004.7
20260506152725 26 0.0 0.0 0.00 0.00 0.00 38 1004.5
20260506151722 26 0.0 0.0 0.00 0.00 0.00 37 1004.7
20260506150719 26 0.0 0.0 0.00 0.00 0.00 41 1004.7
20260506145716 26 0.0 0.0 0.00 0.00 0.00 40 1004.7
20260506144728 25 0.0 0.0 0.00 0.00 0.00 43 1004.7
20260506143725 23 0.0 0.0 0.00 0.00 0.00 44 1004.8
20260506142722 25 0.0 0.0 0.00 0.00 0.00 41 1004.8
20260506141720 25 0.0 0.0 0.00 0.00 0.00 43 1004.8
20260506140717 25 0.0 0.0 0.00 0.00 0.00 42 1005.0
20260506135729 24 0.0 0.0 0.00 0.00 0.00 44 1005.0
20260506133723 22 0.0 0.0 0.00 0.00 0.00 46 1005.1
20260506132720 22 0.0 0.0 0.00 0.00 0.00 44 1005.0
20260506131718 23 0.0 0.0 0.00 0.00 0.00 45 1005.1
20260506130730 23 0.0 0.0 0.00 0.00 0.00 44 1005.1
20260506125727 23 0.0 0.0 0.00 0.00 0.00 46 1005.1
20260506124724 23 0.0 0.0 0.00 0.00 0.00 45 1005.2
20260506123721 23 0.0 0.0 0.00 0.00 0.00 45 1005.2
20260506122718 23 0.0 0.0 0.00 0.00 0.00 47 1005.3
20260506121716 21 0.0 0.0 0.00 0.00 0.00 55 1005.3
20260506115725 20 0.0 0.0 0.00 0.00 0.00 57 1005.2
20260506114722 19 0.0 0.0 0.00 0.00 0.00 57 1005.3
20260506113719 18 0.0 0.0 0.00 0.00 0.00 56 1005.2
20260506112716 19 0.0 0.0 0.00 0.00 0.00 56 1005.2
20260506111728 20 0.0 0.0 0.00 0.00 0.00 56 1005.2
20260506110725 20 0.0 0.0 0.00 0.00 0.00 56 1005.2
20260506105723 21 0.0 0.0 0.00 0.00 0.00 52 1005.1
20260506103717 22 0.0 0.0 0.00 0.00 0.00 48 1005.2
20260506102729 21 0.0 0.0 0.00 0.00 0.00 55 1005.2
20260506101726 19 0.0 0.0 0.00 0.00 0.00 62 1005.2
20260506095720 19 0.0 0.0 0.00 0.00 0.00 63 1005.2
20260506094716 18 0.0 0.0 0.00 0.00 0.00 67 1005.1
20260506093729 17 0.0 0.0 0.00 0.00 0.00 66 1005.1
20260506092726 18 0.0 0.0 0.00 0.00 0.00 64 1004.9
20260506091723 19 0.0 0.0 0.00 0.00 0.00 57 1004.9
20260506090720 21 0.0 0.0 0.00 0.00 0.00 56 1004.8
20260506085717 18 0.0 0.0 0.00 0.00 0.00 65 1004.7
20260506083726 19 0.0 0.0 0.00 0.00 0.00 62 1004.6
20260506082723 20 0.0 0.0 0.00 0.00 0.00 60 1004.5
20260506081720 18 0.0 0.0 0.00 0.00 0.00 65 1004.4
20260506080717 17 0.0 0.0 0.00 0.00 0.00 71 1004.5